EHI
0 0 0 0 0 0 0 0 0 0 0 0 1 2 4 7 12 19 28 35 38 36 32 28 26 26 28 31 31 30 34 40 44 46 47 44 39 37 34 28 24 24 25 24
0 0 0 0 0 0 0 0 0 0 0 0 1 2 5 9 13 19 27 35 39 36 31 26 24 23 24 26 27 28 31 35 39 41 41 39 35 31 27 24 21 21 20 17
0 0 0 0 0 0 0 0 0 0 0 0 0 2 7 12 15 17 23 32 37 35 29 25 22 19 18 20 22 24 26 29 32 33 33 34 32 26 22 19 17 17 13 9
0 0 0 0 0 0 0 0 0 0 0 0 0 1 8 16 18 16 19 26 33 33 31 26 20 16 14 14 16 17 19 22 25 27 29 30 29 24 19 17 16 13 9 6
0 0 0 0 0 0 0 0 0 0 0 0 0 1 8 18 20 18 19 26 30 33 32 25 16 11 10 9 9 10 12 15 17 20 24 24 22 18 15 14 14 11 7 5
0 0 0 0 0 0 0 0 0 0 0 0 0 1 7 15 18 20 26 29 30 29 28 20 11 7 6 5 5 6 7 8 11 13 16 16 15 13 13 12 11 8 5 3
0 0 0 0 0 0 0 0 0 0 0 0 0 3 9 15 19 25 31 31 28 25 21 14 7 4 4 3 3 4 4 4 6 8 9 10 10 10 10 8 7 5 2 1
0 0 0 0 0 0 0 0 0 0 0 0 0 4 11 16 21 27 32 30 25 20 15 8 4 2 2 2 2 2 2 2 3 4 5 5 5 5 5 4 3 1 0 0
0 0 0 0 0 0 0 0 0 0 0 0 1 4 9 14 19 26 28 25 21 16 9 4 2 1 1 0 1 1 1 1 1 1 2 1 1 1 1 1 0 0 0 0
0 0 0 0 0 0 0 0 0 0 0 0 1 2 4 9 17 23 22 19 16 10 4 2 0 0 0 0 0 0 0 0 0 0 0 0 0 0 0 0 0 0 0 0
0 0 0 0 0 0 0 0 0 0 0 0 0 1 2 8 17 21 17 13 10 6 1 0 0 0 0 0 0 0 0 0 0 0 0 0 0 0 0 0 0 0 0 0
0 0 0 0 0 0 0 0 0 0 0 0 0 1 3 8 15 19 16 10 6 3 1 0 0 0 0 0 0 0 0 0 0 0 0 0 0 0 0 0 0 0 0 0
0 0 0 0 0 0 0 0 0 0 0 0 0 1 5 9 14 17 14 9 5 2 0 0 0 0 0 0 0 0 0 0 0 0 0 0 0 0 0 0 0 0 0 0
1 1 0 0 0 0 0 0 0 0 0 0 0 1 6 10 14 14 11 7 3 1 0 0 0 0 0 0 0 0 0 0 0 0 0 0 0 0 0 0 0 0 0 0
0 0 0 0 0 0 0 0 0 0 0 0 0 2 7 12 13 12 8 4 2 0 0 0 0 0 0 0 0 0 0 0 0 0 0 0 0 0 0 0 0 0 0 0
0 0 0 0 0 0 0 0 0 0 0 0 0 3 9 13 12 8 5 3 1 0 0 0 0 0 0 0 0 0 0 0 0 0 0 0 0 0 0 0 0 0 0 0
0 0 0 0 0 0 0 0 0 1 1 2 5 8 12 13 9 6 4 2 1 0 0 0 0 0 0 0 0 0 0 0 0 0 0 0 0 0 0 0 0 0 0 0
0 0 0 0 0 0 0 0 0 2 3 6 10 12 12 10 6 4 3 2 1 0 0 0 0 0 0 0 0 0 0 0 0 0 0 0 0 0 0 0 0 0 0 0
0 0 0 0 0 0 1 0 0 1 4 6 8 8 7 5 2 1 2 2 1 0 0 0 0 0 0 0 0 0 0 0 0 0 0 0 0 0 0 0 0 0 0 0
0 0 0 0 0 0 0 0 0 0 2 3 4 2 1 1 0 1 1 1 0 0 0 0 0 0 0 0 0 0 0 0 0 0 0 0 0 0 0 0 0 0 0 0
0 0 0 0 0 0 0 0 0 0 0 1 1 0 0 0 1 2 1 0 0 0 0 0 0 0 0 0 0 0 0 0 0 0 0 0 0 0 0 0 0 0 0 0
0 0 0 0 0 0 0 0 0 0 0 0 0 0 0 0 1 1 1 0 0 0 0 0 0 0 0 0 0 0 0 0 0 0 0 0 0 0 0 0 0 0 0 0
0 0 0 0 0 0 0 1 0 0 1 1 1 0 0 0 0 0 0 0 0 0 0 0 0 0 0 0 0 0 0 0 0 0 0 0 0 0 0 0 0 0 0 0
0 0 0 0 0 0 0 0 0 0 1 2 1 0 0 0 0 0 0 0 0 0 0 0 0 0 0 0 0 0 0 0 0 0 0 0 0 0 0 0 0 0 0 0
0 0 0 0 0 0 0 0 0 0 1 1 1 0 0 0 0 0 0 0 0 0 0 0 0 0 0 0 0 0 0 0 0 0 0 0 0 0 0 0 0 0 0 0
0 0 0 0 0 0 1 1 1 0 0 1 0 0 0 0 0 0 0 0 0 0 0 0 0 0 0 0 0 0 0 0 0 0 0 0 0 0 0 0 0 0 0 0
Wind_Speed
12 13 12 12 14 13 9 11 9 7 9 10 8 9 9 9 8 7 8 9 12 12 12 11 10 9 9 10 10 9 8 7 5 3 2 2 2 2 3 3 4 4 4 4
11 14 13 10 9 11 11 11 8 7 7 6 6 7 10 10 9 8 9 9 10 11 11 11 10 9 9 9 9 8 8 7 6 4 2 1 2 2 3 4 4 5 5 5
13 9 9 8 9 10 11 9 5 5 5 6 6 8 11 10 10 9 9 10 11 11 10 10 10 10 9 10 9 8 8 7 7 5 3 2 2 2 3 3 3 4 5 5
11 9 8 9 9 9 8 6 4 5 7 7 10 9 11 11 8 10 9 10 11 11 10 10 10 10 10 9 9 9 9 8 8 7 5 4 3 3 4 3 3 4 5 6
9 9 9 9 8 8 8 6 7 9 9 8 9 8 7 12 10 8 8 10 10 11 11 11 11 10 9 9 9 8 9 9 9 8 7 6 6 5 4 4 4 4 5 6
10 7 7 7 8 8 8 7 8 8 7 10 8 9 7 10 11 11 10 11 12 13 12 12 11 10 9 9 9 8 9 10 9 9 9 8 8 6 5 5 4 4 4 5
10 9 8 9 9 7 9 7 5 5 6 8 8 8 3 7 10 12 14 14 14 13 12 11 10 10 9 9 9 9 10 9 9 9 9 8 7 6 7 5 5 5 5 5
7 7 8 8 8 6 9 9 6 4 5 6 6 3 5 6 9 13 15 16 15 13 12 11 10 9 9 9 9 9 9 9 9 8 8 7 7 5 6 6 6 5 5 5
5 6 8 8 8 8 9 9 8 6 7 4 2 2 4 7 10 13 15 15 14 13 12 11 10 9 9 9 9 9 9 8 8 8 7 7 8 7 7 6 6 5 5 5
5 5 6 7 8 9 9 9 6 6 5 5 3 3 4 7 9 11 11 13 14 13 12 11 10 9 9 8 8 8 8 8 7 7 6 6 7 7 7 6 7 6 6 5
5 4 5 6 7 7 8 8 6 5 6 6 3 1 2 6 11 13 12 12 14 14 12 10 9 9 8 8 7 7 7 7 7 8 7 7 6 7 7 6 7 6 6 6
4 4 4 5 5 6 7 7 7 6 6 6 4 2 2 4 10 14 15 14 13 13 12 10 9 9 8 8 8 7 7 7 7 7 7 7 7 7 7 7 7 6 6 6
5 3 4 4 3 5 7 8 7 6 5 5 5 1 3 3 8 13 15 15 13 12 12 10 9 8 8 8 7 7 7 7 6 7 7 7 7 7 7 6 6 6 6 6
4 3 4 5 5 6 8 8 8 7 5 4 2 2 5 5 9 13 14 14 13 12 11 10 9 8 8 7 7 6 6 6 6 7 7 7 6 6 6 5 5 5 6 6
3 5 6 8 10 9 8 8 7 7 6 5 1 3 6 9 11 13 14 13 13 12 11 10 10 9 8 7 6 6 6 6 5 6 7 6 6 6 6 6 6 6 7 8
2 6 8 9 9 7 6 6 7 5 6 5 5 7 9 11 13 12 13 13 13 12 12 11 10 9 8 7 6 6 6 5 5 6 6 6 6 6 5 5 6 6 7 7
4 5 7 7 6 7 3 4 3 4 7 7 6 7 11 11 11 12 12 12 12 12 12 11 10 9 8 7 6 6 5 5 5 6 6 6 6 6 5 6 6 6 6 6
5 6 6 7 5 4 1 4 5 6 11 10 9 9 10 11 11 10 10 12 12 13 12 11 10 9 8 7 6 5 6 6 6 6 6 6 6 6 5 5 6 5 5 5
4 5 5 4 3 2 5 8 7 5 9 9 9 9 11 13 12 9 9 11 12 12 11 10 10 9 8 7 7 6 6 6 6 6 5 6 6 6 6 5 5 4 4 5
5 5 6 6 4 1 3 6 5 1 6 6 7 8 9 9 5 7 10 12 13 12 10 10 9 9 8 6 6 6 7 6 6 5 6 6 5 5 5 4 4 3 3 4
2 4 5 5 3 3 7 9 7 3 4 5 7 8 6 2 6 13 14 14 13 12 11 10 10 8 7 6 6 6 6 6 6 6 6 5 5 5 5 3 3 3 4 4
3 3 4 4 2 3 10 8 7 5 4 6 8 9 9 12 15 15 15 14 13 12 12 11 9 8 7 6 6 6 6 6 6 6 6 4 3 4 5 3 3 3 3 3
4 4 3 4 3 3 7 8 6 5 6 7 8 10 12 13 15 15 14 14 13 12 11 9 9 8 7 6 6 7 6 5 6 6 5 4 4 4 3 2 2 2 2 2
4 5 3 4 5 5 8 8 7 7 7 8 10 11 12 14 15 15 13 12 12 11 11 9 9 9 7 6 7 6 6 6 6 6 5 3 3 3 2 1 2 2 3 3
6 5 3 3 4 6 9 8 7 7 8 10 10 11 12 14 14 14 12 12 11 10 9 9 8 8 9 8 7 7 6 6 5 5 4 4 3 4 4 5 5 5 5 5
6 6 4 4 5 4 5 5 5 6 7 9 10 11 12 13 14 13 12 10 10 10 9 9 9 9 9 9 8 7 6 6 5 4 4 4 4 3 4 5 5 7 5 6
Wind_Direction
209 225 229 224 228 243 241 242 221 189 176 205 201 169 160 162 170 159 133 121 120 111 102 92 81 75 71 64 58 52 46 38 34 33 28 52 57 50 58 56 43 35 22 7
210 226 235 231 234 252 258 243 216 172 184 205 196 183 161 171 165 152 139 130 117 111 106 96 87 76 68 63 57 51 41 33 30 25 21 38 60 63 65 51 41 33 25 8
223 224 220 230 227 240 253 252 215 177 181 221 216 203 176 166 157 150 150 138 127 117 105 96 87 76 69 61 54 50 40 33 24 16 22 40 75 75 61 49 41 27 23 21
231 225 211 223 230 231 244 254 239 205 216 223 222 223 184 167 166 157 154 134 124 118 112 101 87 74 66 61 58 53 45 37 26 21 28 36 55 60 45 39 41 37 35 27
226 217 210 219 230 235 251 247 239 220 221 245 236 243 185 157 179 178 156 136 128 120 110 100 90 81 71 63 59 56 51 42 34 33 35 41 49 51 48 44 43 37 40 31
240 224 213 224 228 229 253 249 252 243 234 239 239 244 193 178 179 173 161 142 130 119 109 101 96 87 75 66 60 58 55 46 40 40 41 46 50 51 51 43 37 35 41 32
224 216 212 222 226 218 245 241 238 246 243 252 247 234 155 151 155 163 155 143 129 120 115 108 100 90 80 69 62 59 58 52 46 47 46 43 45 47 46 39 39 37 39 34
231 220 216 217 225 220 238 246 242 246 263 269 264 254 120 114 127 135 136 134 127 121 114 106 97 89 82 73 66 62 60 55 49 51 49 44 41 46 48 44 43 43 41 39
237 218 206 220 228 229 233 244 252 256 252 242 240 52 91 110 115 122 130 128 124 119 114 107 100 93 85 77 69 66 64 60 53 53 54 52 48 48 49 46 46 46 39 44
258 253 211 214 231 236 251 257 263 271 283 276 198 174 190 167 144 134 135 133 125 120 113 108 103 98 92 87 80 73 68 65 58 53 50 58 54 53 52 51 47 47 46 44
273 251 228 220 230 238 252 254 272 289 291 296 295 192 166 182 165 153 152 140 131 128 124 117 109 104 102 97 92 84 77 72 67 61 55 52 52 54 59 56 53 45 44 45
329 288 260 248 258 271 264 262 259 270 288 301 312 76 79 161 162 149 141 133 127 124 120 116 114 112 105 96 88 82 76 74 72 72 68 59 53 52 56 56 52 47 44 45
331 301 263 247 250 270 270 264 268 273 289 297 307 103 102 88 125 128 131 129 127 126 122 120 117 109 101 95 88 81 77 74 74 77 76 68 61 57 57 54 50 51 52 49
298 289 278 265 271 265 264 267 272 279 282 291 303 143 142 133 122 122 126 130 131 130 128 125 118 111 104 99 94 91 84 79 80 80 79 74 66 60 58 56 54 54 57 55
320 290 278 271 261 258 272 278 281 288 307 319 338 121 142 137 131 132 134 137 137 136 134 130 125 117 111 106 100 97 93 87 87 87 83 80 74 66 60 54 53 54 59 62
329 297 293 279 273 272 276 295 303 315 344 5 44 69 95 113 123 129 139 145 143 142 138 133 127 125 121 118 113 105 100 101 95 90 91 88 82 77 71 64 56 56 58 60
295 295 294 286 293 290 287 333 323 355 26 29 51 89 114 119 130 142 148 149 145 141 137 136 133 131 129 128 122 116 112 110 100 94 97 94 89 84 78 76 68 61 60 63
282 298 295 290 301 275 41 360 20 63 61 55 73 87 103 114 118 128 139 141 141 138 138 136 132 129 128 126 124 122 121 114 106 101 97 93 91 91 87 83 79 69 63 67
222 272 290 295 283 298 21 5 5 30 62 53 79 92 105 114 114 109 120 129 132 132 131 130 130 130 132 134 134 130 121 115 109 105 104 106 105 100 93 85 81 75 75 79
203 224 257 281 296 351 19 328 313 91 85 59 94 111 124 142 133 129 124 122 123 123 123 126 128 131 132 131 129 124 122 122 118 113 105 103 102 98 93 90 91 90 88 89
261 248 259 282 306 57 356 332 334 33 64 64 96 109 123 119 95 126 128 125 126 126 129 132 133 131 132 134 131 128 128 126 122 114 107 102 107 112 106 99 94 93 87 87
350 339 337 339 357 27 0 16 39 50 70 84 96 102 98 99 112 124 128 130 133 134 137 136 134 133 137 139 138 130 124 126 124 119 114 115 127 121 110 109 108 106 114 119
37 22 5 38 60 57 49 59 60 63 72 82 97 105 115 120 126 129 132 135 138 139 138 139 141 139 139 142 140 132 131 133 130 123 120 119 108 95 110 132 142 155 174 163
43 20 39 69 77 71 63 65 59 63 80 91 104 115 122 125 130 133 136 138 139 140 143 145 147 144 143 146 140 134 134 132 131 130 126 124 124 119 108 81 74 63 45 29
354 360 23 66 63 70 58 53 61 73 90 100 107 117 124 131 135 137 139 142 143 144 146 149 149 145 143 144 140 137 132 132 136 142 147 144 121 102 87 71 51 60 56 50
23 22 20 39 37 49 63 58 70 87 99 108 113 120 128 134 137 138 140 142 145 147 149 152 153 150 147 146 142 139 140 140 144 154 160 149 142 142 134 123 101 62 80 84